Location: Oberkirch
(48.5323°N, 8.0787°E)
Time: 15:37:42
(UTC+00:00)

SR - Pass Details

Date: 20 February 2026
Orbit: 573 x 848 km, 66.7° (Epoch: 7 March)

Event Time Altitude Azimuth Distance (km) Brightness Sun altitude
Exits shadow 04:29:57 44° 302° (WNW) 837 ? -20.0°
Maximum altitude 04:30:13 45° 313° (NW) 832 ? -19.9°
Drops below altitude 10° 04:34:33 10° 26° (NNE) 2,021 ? -19.2°
Sets 04:37:01 0° 33° (NNE) 2,977 ? -18.8°
